User: anonymous   Login
Location: Fauquembergues
(50.6005°N, 2.0987°E)
Time: 21:57:56
(UTC+00:00)
Language:

Cosmos 1140 Rocket - Orbit

View from above orbital plane
View from above orbital plane
View from above satellite
View from above satellite

Ground track
Ground track

The orbit data is extracted from the following two-line orbital elements,

1 11574U 79089B   20270.18621238  .00000021  00000-0  14863-4 0  9992
2 11574  74.0710 169.3758 0015087 132.2295 228.0144 14.40766569149523
Epoch (UTC): 26 September 2020 04:28:08
Eccentricity: 0.0015087
inclination: 74.0710°
perigee height: 745 km
apogee height: 767 km
right ascension of ascending node: 169.3758°
argument of perigee: 132.2295°
revolutions per day: 14.40766569
mean anomaly at epoch: 228.0144°
orbit number at epoch: 14952

The dashed part of the orbit path shows where the satellite is in the earth's shadow,  

DLR